GFSSW_prec_cloud_273.txt.gz
Cloud_Cover
100 100 100 87 94 100 21 18 79 100 100 100 100 100 100 100 100 100 100 100 95 4 1 0 0 0 0 0 0 0 0 0 0 0 0 0 0 0 0 0 0 0 0 0 0
82 100 100 96 16 87 100 100 100 100 100 99 99 100 100 100 99 100 84 100 100 76 1 0 0 0 0 0 0 0 0 0 0 0 0 0 0 0 0 0 2 0 0 0 0
17 100 99 99 100 69 95 95 100 100 100 100 100 100 100 100 100 100 100 100 100 100 44 2 6 0 0 1 0 0 0 0 0 0 0 0 0 0 0 0 0 0 0 0 0
57 48 84 100 100 100 99 98 100 100 100 95 100 100 100 100 100 100 100 99 100 93 77 31 39 0 0 5 4 0 0 0 0 0 0 0 0 0 0 0 0 0 0 0 0
84 98 99 100 96 100 98 100 100 100 100 100 100 100 100 100 100 100 100 100 96 75 100 28 18 1 5 5 4 0 0 0 0 0 0 0 0 0 0 0 0 0 0 0 0
93 100 97 80 86 99 95 100 94 100 100 100 100 100 100 100 100 100 100 100 100 100 5 46 100 90 8 26 5 0 0 0 0 0 0 0 0 0 0 0 0 0 0 0 0
89 100 73 100 97 93 74 100 100 100 100 100 100 100 100 100 100 100 100 100 100 100 100 71 76 100 89 9 5 1 0 0 0 0 0 0 0 0 0 0 0 0 0 0 0
100 100 100 100 100 100 100 100 100 100 100 100 100 100 100 100 100 100 100 100 100 100 100 80 84 100 100 11 4 0 0 0 0 0 0 0 0 0 0 0 0 0 0 0 0
100 100 100 100 99 98 93 100 99 100 100 100 100 100 100 100 100 100 100 100 100 100 100 95 100 82 100 74 5 0 0 0 0 0 0 0 0 0 0 0 0 0 0 0 0
100 100 97 100 89 89 59 100 100 100 100 100 100 100 100 100 100 100 100 100 100 100 100 100 100 58 100 91 5 0 0 0 0 0 0 0 0 0 0 0 0 0 0 0 0
100 100 100 100 5 86 26 92 56 98 90 79 100 100 100 100 100 100 100 100 100 100 100 100 100 100 100 100 100 5 0 0 0 0 0 1 0 0 0 0 0 0 0 0 0
100 100 100 100 100 100 100 26 84 97 78 68 95 92 100 100 100 100 100 84 100 100 100 100 100 100 100 100 100 5 0 0 0 0 2 4 4 0 0 0 0 0 0 0 0
100 100 91 100 43 100 100 100 15 95 100 87 54 19 93 100 100 100 84 98 100 100 100 100 100 100 100 100 97 4 0 0 0 0 5 5 15 4 0 0 0 0 0 0 0
25 36 43 24 5 5 21 6 5 49 85 97 86 40 70 79 100 100 93 74 95 100 100 100 100 100 100 100 88 1 0 0 0 4 5 5 58 47 0 0 0 0 0 0 0
93 98 98 96 99 68 40 90 5 59 93 86 100 96 100 100 80 94 100 71 99 100 100 100 100 100 100 100 91 5 0 0 5 5 5 5 100 100 0 0 0 0 0 0 0
89 22 64 96 50 100 97 93 5 79 30 83 100 68 81 99 90 88 100 100 100 100 100 100 100 100 100 100 100 6 5 2 19 30 28 5 100 100 0 0 0 0 0 0 0
100 100 85 60 80 91 100 98 93 100 39 12 100 100 46 90 100 65 99 100 100 100 100 100 100 100 100 100 100 66 16 98 64 100 40 19 100 100 0 0 0 0 0 0 0
100 100 100 100 100 75 97 100 100 100 100 96 92 93 75 92 100 85 91 100 100 100 100 100 98 100 100 100 100 98 82 62 64 100 99 77 100 83 0 3 0 0 0 0 0
100 100 100 100 100 100 95 100 100 100 100 100 100 65 99 75 97 100 100 100 100 100 100 100 100 100 100 100 100 100 8 10 82 100 60 84 100 18 0 0 0 0 0 0 0
100 100 100 100 97 100 100 100 100 100 100 100 100 98 100 48 92 100 100 100 97 100 100 100 100 100 100 100 100 99 33 23 100 86 10 88 100 5 4 0 2 0 0 0 0
100 100 100 100 86 100 100 100 100 100 100 100 100 100 99 86 87 98 100 100 100 100 100 100 100 100 100 100 100 100 91 94 100 59 6 100 93 5 2 3 2 0 0 0 0
100 100 100 100 100 100 100 100 100 100 100 100 100 100 100 93 100 57 99 100 100 100 100 100 100 100 100 100 100 100 100 94 100 14 5 98 40 5 2 5 0 0 0 0 0
100 100 100 100 100 92 100 100 100 100 100 100 100 100 100 100 97 100 100 100 100 100 100 100 100 100 100 100 100 100 100 100 100 97 26 91 14 5 5 97 2 2 0 0 0
100 100 96 100 100 100 100 100 100 100 100 100 100 100 100 100 100 98 100 100 100 100 100 100 100 100 100 100 100 100 98 88 100 71 65 44 56 5 6 100 56 36 4 4 0
100 100 100 98 94 100 100 100 100 100 100 100 100 100 100 100 100 100 100 100 100 100 100 100 100 99 100 100 100 100 100 100 100 21 100 49 58 5 31 100 97 100 42 7 8
100 100 100 100 89 75 98 100 100 100 100 100 100 100 100 100 100 100 100 100 100 100 100 100 100 100 100 100 100 100 100 100 100 83 100 100 5 5 7 87 46 100 74 18 5
100 100 100 100 99 97 7 100 100 100 100 100 100 100 100 100 100 100 100 100 100 100 100 100 100 100 100 100 96 100 100 100 100 100 99 100 16 8 5 69 100 100 100 34 6

GFSSW_prec_cloud_276.txt.gz
Cloud_Cover
100 84 99 100 64 62 82 96 86 31 91 100 100 100 100 89 99 100 100 100 100 100 100 42 5 5 0 0 0 0 0 0 0 0 0 0 0 0 0 0 0 0 0 0 0
60 100 95 98 71 66 68 35 100 100 78 100 100 100 100 100 100 99 100 100 100 100 100 100 44 2 1 0 0 0 0 0 0 0 0 0 0 0 0 0 0 0 0 0 0
100 100 82 34 100 85 15 5 97 12 99 100 100 100 100 100 100 100 100 100 100 100 100 100 84 3 9 17 0 0 0 0 0 0 0 0 0 0 0 0 0 0 0 0 0
94 99 100 96 100 64 72 20 76 15 12 100 100 100 100 100 100 100 100 100 100 100 100 100 91 22 19 100 73 0 2 0 0 0 0 0 0 0 0 0 0 0 0 0 0
100 100 85 100 100 100 71 97 43 85 97 99 100 100 100 100 100 100 100 100 100 100 100 100 23 100 5 100 100 5 5 5 1 0 0 0 0 0 0 0 0 0 0 0 0
99 100 100 98 100 100 100 88 96 100 100 91 82 100 100 100 100 100 100 100 100 100 100 100 100 100 5 100 100 10 5 7 0 0 0 0 0 0 0 0 0 0 0 0 0
100 100 100 99 100 29 100 96 29 100 98 62 100 100 100 100 100 100 100 100 100 100 100 100 90 100 93 100 100 5 5 4 0 0 0 0 0 0 0 0 0 0 0 0 0
100 45 15 100 47 29 68 54 56 98 100 71 94 69 100 100 100 100 100 100 100 100 100 100 100 100 100 100 100 16 6 5 5 3 0 0 0 0 0 0 0 0 0 0 0
87 70 90 9 100 96 59 12 100 97 41 100 98 100 100 100 100 100 100 100 100 100 100 100 100 100 100 100 100 14 10 95 5 5 0 0 0 0 2 0 0 0 0 0 0
100 92 70 99 100 100 82 97 100 97 65 99 83 98 100 100 100 100 100 100 100 100 100 100 100 100 99 85 73 100 5 98 3 0 0 0 0 5 3 5 0 0 0 0 0
100 100 100 100 100 95 99 100 100 100 8 16 84 100 37 12 90 100 100 100 100 100 100 100 100 100 100 93 96 68 5 71 5 0 0 0 0 5 5 5 0 0 0 0 0
100 100 100 100 100 100 100 100 100 93 93 25 36 93 70 80 84 91 100 100 98 100 100 100 100 100 100 100 100 63 39 26 5 5 0 0 0 37 26 5 0 0 0 0 0
100 100 100 100 100 100 100 100 100 92 85 96 78 45 98 48 27 12 100 100 100 97 100 100 100 100 100 100 96 12 91 91 9 3 0 0 2 99 53 5 0 0 0 0 0
100 100 100 100 100 100 100 61 84 68 33 11 52 40 65 5 59 99 100 100 97 47 96 100 100 100 100 100 100 88 100 80 82 5 1 4 4 29 35 2 0 0 0 0 0
100 100 100 100 100 100 48 87 28 5 5 5 5 16 97 75 87 85 97 89 66 90 84 100 100 100 100 100 100 100 90 99 94 6 5 5 5 40 5 2 0 0 0 0 0
100 99 93 94 100 59 13 5 5 5 17 56 5 43 16 100 100 94 77 99 96 64 82 99 100 100 100 100 99 89 99 100 100 11 12 9 35 95 10 2 0 0 0 0 0
100 100 87 97 96 49 100 22 10 18 57 27 32 6 77 100 100 94 89 95 100 100 64 100 100 100 100 100 100 100 99 96 75 12 5 26 5 97 12 0 0 0 0 0 0
100 100 100 100 100 100 100 55 7 100 100 100 100 99 57 97 93 100 100 62 38 87 55 79 100 100 96 100 100 100 94 100 99 7 5 41 6 100 4 0 0 0 0 0 0
100 100 100 100 100 100 100 99 100 100 100 100 100 100 100 100 26 32 100 100 79 56 92 83 93 68 83 100 100 100 100 100 66 7 5 6 14 100 4 0 0 0 0 0 0
100 100 100 100 100 100 100 100 100 100 100 100 100 100 95 100 89 70 77 95 73 71 52 100 90 100 98 100 100 100 100 100 100 74 7 6 5 97 2 0 5 0 0 0 0
100 100 100 100 100 100 100 100 100 100 100 100 100 100 100 100 100 98 92 76 36 97 69 100 100 100 100 100 100 100 100 98 95 66 98 13 5 79 12 4 62 4 0 0 0
100 100 100 100 100 100 100 100 100 100 100 100 100 100 100 100 100 100 100 100 78 95 100 98 86 100 100 100 100 100 100 93 77 98 100 33 5 6 9 2 28 3 11 0 1
100 100 100 100 100 100 100 100 100 100 100 100 100 100 100 100 100 100 100 97 95 17 81 84 100 100 100 100 100 100 89 75 86 100 70 96 5 5 5 0 4 8 4 4 5
100 100 100 100 100 100 100 100 100 100 100 100 100 100 100 100 100 100 100 96 100 100 95 78 100 100 100 100 100 100 75 98 100 64 79 73 52 5 5 4 3 95 1 9 5
100 100 87 77 99 100 100 100 100 100 100 100 100 100 100 100 100 100 100 100 100 100 86 100 100 100 100 100 99 100 99 100 100 8 100 15 100 42 5 5 5 100 7 6 10
100 100 100 100 100 98 100 100 100 100 100 100 100 100 100 100 100 100 100 100 98 89 97 100 100 100 100 100 100 100 100 98 84 90 99 90 83 95 5 5 5 41 100 5 7
100 100 100 100 100 99 14 82 100 99 100 100 100 100 100 100 100 100 100 100 100 98 91 100 100 100 100 100 100 100 100 86 64 82 35 82 55 100 100 65 5 60 100 89 50

GFSSW_prec_cloud_279.txt.gz
Cloud_Cover
74 73 96 24 98 58 48 62 91 91 8 59 94 48 91 100 100 100 55 100 100 100 100 100 100 100 100 93 5 8 82 0 4 4 2 0 0 0 0 0 0 0 0 0 0
5 94 83 46 54 80 100 87 100 93 80 86 70 98 91 100 100 100 100 100 100 100 100 100 100 100 100 21 36 41 100 98 5 3 8 0 0 0 0 0 0 0 0 0 0
100 8 79 100 88 100 85 100 34 63 7 79 100 41 71 100 100 100 100 100 100 100 100 100 100 100 100 83 94 6 100 100 2 5 25 0 0 0 0 0 0 0 0 0 0
100 86 96 98 59 56 57 79 90 52 48 42 100 43 100 100 100 100 100 100 100 100 100 100 100 100 100 34 100 100 100 81 6 5 5 2 1 0 0 0 0 0 0 0 0
100 100 100 96 88 67 32 21 13 97 8 54 92 88 100 90 96 100 100 100 100 100 100 100 100 100 100 99 96 100 100 100 98 34 23 9 4 0 0 0 0 0 0 0 0
100 94 99 86 36 90 100 94 78 70 7 5 91 98 100 98 100 97 100 100 100 100 100 100 100 100 100 94 100 100 100 100 94 72 50 88 1 0 0 0 0 0 0 0 0
100 100 100 68 98 56 33 78 15 57 5 5 78 95 100 100 79 40 100 100 100 100 100 100 98 100 100 68 94 100 100 9 61 100 70 89 3 0 0 0 0 0 0 0 0
100 100 100 41 76 45 9 36 25 54 13 5 24 93 100 77 84 57 94 100 100 100 100 97 90 100 100 93 100 100 85 5 99 100 93 100 14 0 0 0 0 0 0 0 0
100 87 33 49 31 10 12 45 5 26 82 5 9 89 96 100 48 38 63 84 100 100 100 100 100 100 89 26 100 100 84 100 88 27 52 78 20 0 0 0 0 0 0 0 0
93 80 87 51 21 11 5 52 42 5 5 41 20 92 98 100 100 14 24 99 70 100 88 93 91 59 90 52 100 100 55 100 60 36 98 98 11 0 4 5 0 0 0 0 0
100 100 100 100 100 21 8 13 25 34 12 17 50 100 100 98 100 28 100 100 98 60 100 100 99 37 52 24 97 100 33 100 5 53 51 100 27 0 5 2 0 0 0 0 0
100 100 100 100 100 100 88 100 100 100 100 97 100 100 100 100 100 100 21 11 31 38 100 100 100 52 9 15 68 100 95 97 6 66 78 100 14 5 48 0 0 0 0 0 0
100 100 100 100 100 100 100 100 100 100 100 100 100 100 100 100 99 100 72 13 32 95 97 100 34 5 10 43 41 77 100 90 51 17 64 96 10 5 97 2 0 0 0 0 0
100 100 100 100 100 100 100 100 100 100 100 100 100 92 100 100 71 100 96 33 50 100 100 92 82 95 5 5 11 26 74 50 74 40 76 75 6 5 97 9 0 0 0 0 0
100 100 100 100 100 100 100 100 100 100 100 100 100 11 5 41 22 82 100 94 74 100 100 74 44 8 9 5 6 29 62 14 84 100 22 54 5 0 11 5 0 0 0 0 0
100 100 100 100 100 100 100 100 100 100 100 100 96 66 51 5 12 5 43 88 28 79 100 100 97 44 56 6 28 96 87 84 90 100 56 6 5 0 4 5 0 0 0 0 0
100 100 100 100 100 72 98 69 7 100 100 100 100 97 89 5 5 5 5 25 79 67 74 53 70 72 20 5 5 14 73 88 70 100 100 70 5 5 1 5 0 0 0 0 0
100 100 100 100 100 100 99 91 7 98 100 100 100 100 91 41 19 5 5 5 5 7 10 37 33 55 39 6 5 5 71 41 81 100 100 85 5 5 1 5 0 0 0 0 0
100 100 100 100 100 100 100 100 100 100 100 100 100 100 100 100 91 68 5 5 5 8 26 9 5 5 53 58 5 97 28 93 77 100 100 100 15 8 2 5 0 0 0 0 0
100 100 100 100 100 100 98 100 100 100 100 100 100 100 100 100 100 100 100 5 5 5 100 100 57 10 32 95 61 96 84 83 33 98 100 100 68 58 5 5 0 1 0 0 0
100 100 100 100 100 100 100 100 100 100 100 100 100 100 100 100 100 100 97 96 10 78 100 100 100 73 76 100 8 47 87 76 32 85 100 100 100 54 36 5 0 2 0 0 0
100 100 100 100 100 100 100 100 100 100 100 100 100 100 100 100 100 100 100 100 98 5 38 100 100 100 46 77 88 55 87 58 73 59 78 99 88 87 28 5 2 0 0 0 0
100 100 100 100 100 100 100 100 100 100 100 100 100 100 100 100 100 100 100 100 100 100 11 11 88 100 93 32 5 98 70 10 19 72 100 100 27 100 90 7 4 0 7 0 0
100 100 100 100 100 45 79 100 100 100 100 100 100 100 100 100 100 100 100 100 100 100 70 27 99 100 100 99 54 100 100 95 63 42 98 82 94 100 58 48 5 3 1 4 0
100 100 100 100 96 63 100 100 100 100 100 100 100 100 100 100 100 100 100 91 100 100 99 100 52 79 100 100 85 100 100 100 68 98 96 63 100 56 100 85 13 5 5 4 0
100 100 100 100 100 100 100 92 100 100 100 100 100 100 100 100 100 100 100 54 100 100 100 70 100 57 12 100 100 100 100 60 48 88 88 50 91 100 100 50 64 98 10 7 5
100 100 100 100 100 100 6 50 100 100 100 100 100 100 100 100 100 100 100 72 100 100 100 100 100 100 97 23 100 100 100 100 46 12 80 16 52 21 100 100 100 100 57 65 6

GFSSW_prec_cloud_282.txt.gz
Cloud_Cover
89 100 100 15 100 66 16 87 99 8 5 9 6 39 100 98 54 97 87 99 100 100 100 100 100 100 100 100 100 100 100 23 81 100 87 66 5 0 0 0 0 0 0 0 0
92 33 100 97 100 88 76 89 99 76 57 21 5 6 100 82 64 100 99 100 100 100 100 100 100 100 100 100 100 100 100 100 100 100 100 29 5 3 1 2 0 0 0 0 0
18 64 90 67 94 88 98 100 100 100 90 30 25 72 10 63 91 100 97 100 100 100 100 100 100 100 100 100 100 100 100 100 100 100 100 90 8 5 3 0 0 0 0 0 0
49 90 94 83 83 100 63 26 100 95 93 100 59 83 53 39 94 26 100 100 100 100 100 100 100 100 100 100 100 100 100 100 77 100 100 100 78 5 3 0 0 0 0 0 0
89 100 86 70 72 71 100 95 95 82 13 99 77 32 59 14 8 68 100 100 98 100 100 100 100 100 100 100 100 100 100 100 100 100 80 100 98 6 5 0 0 0 0 0 0
91 73 85 11 13 6 48 72 77 22 6 23 94 5 5 9 16 42 62 23 79 100 100 100 100 100 100 100 100 100 100 100 100 100 100 100 64 5 20 5 0 0 0 0 0
100 98 37 20 52 44 26 66 19 11 22 14 16 20 5 5 5 30 10 9 100 98 59 99 100 100 100 100 100 100 84 100 100 81 100 24 57 65 27 5 0 0 0 0 0
92 90 98 96 58 26 37 36 18 14 40 22 5 9 9 5 61 57 21 97 69 95 38 85 81 72 100 100 100 98 68 38 51 100 100 43 58 57 68 5 0 0 0 0 0
98 100 89 75 95 25 39 47 5 89 6 20 5 5 5 37 12 38 70 100 100 100 40 9 7 90 98 100 100 73 48 5 15 100 99 88 99 62 68 5 2 0 0 0 0
37 7 100 20 34 16 5 8 12 5 5 5 4 5 5 42 65 96 98 100 100 100 28 5 5 75 100 100 89 68 15 65 19 100 100 100 100 22 62 5 1 0 0 0 0
87 58 6 47 98 44 11 75 27 5 5 3 1 5 5 12 100 100 100 100 100 100 93 5 31 100 100 87 73 5 8 60 65 100 84 17 88 49 12 5 0 0 0 0 0
77 99 93 96 35 100 10 12 60 100 93 5 5 5 16 93 100 100 100 100 100 100 100 89 35 80 59 36 12 12 9 100 100 100 100 100 100 46 10 5 4 0 0 0 0
100 100 100 100 89 100 84 100 100 100 98 73 84 59 100 100 100 100 100 100 100 84 100 100 33 5 15 73 94 89 30 85 100 72 100 100 83 88 23 5 5 0 0 0 0
100 100 100 100 100 100 100 100 100 100 100 100 100 100 100 100 100 100 100 82 100 77 100 98 100 41 42 5 31 87 68 80 95 85 100 100 100 72 56 5 5 0 0 0 0
100 100 100 100 100 100 100 100 100 100 100 100 100 100 100 100 83 5 72 24 19 37 100 64 72 73 61 45 5 23 45 75 93 91 100 100 100 100 94 20 5 5 0 0 0
100 100 100 100 100 100 100 100 100 100 100 100 100 100 100 100 100 5 5 8 5 54 82 52 33 18 73 5 5 5 6 12 100 99 100 96 100 100 98 62 5 5 0 0 0
100 100 100 100 100 100 100 100 100 100 100 100 100 100 100 100 100 100 11 98 5 4 5 5 5 6 5 5 3 5 5 47 85 86 100 99 100 100 90 51 5 5 0 0 0
100 100 100 100 100 100 100 100 100 100 100 100 100 100 100 100 100 100 100 59 44 5 5 28 14 5 5 30 14 5 5 32 6 98 100 100 100 92 77 36 5 5 3 0 0
100 100 100 100 100 100 100 94 100 100 100 100 100 100 100 100 100 100 100 98 76 80 56 61 5 11 57 100 100 6 5 5 38 80 100 100 100 100 100 59 5 4 5 0 0
100 100 100 100 100 100 100 87 66 100 100 100 100 100 100 100 100 100 100 100 100 100 100 91 18 68 85 100 100 80 5 5 22 56 100 97 100 91 100 41 11 5 5 4 0
100 100 100 100 100 100 100 100 100 100 100 100 100 100 100 100 100 100 100 100 100 100 100 100 100 79 6 80 100 100 42 52 14 15 92 100 58 6 79 32 60 5 5 5 4
100 100 100 100 100 100 100 100 100 100 100 100 100 100 100 100 100 100 100 100 100 100 100 100 100 8 8 61 94 100 100 18 37 33 71 84 50 72 13 29 8 5 5 5 5
100 100 100 100 100 84 100 100 100 100 100 100 100 100 100 100 100 100 100 100 100 100 100 100 100 5 5 10 68 100 100 100 100 8 6 81 33 58 56 82 82 22 24 5 5
100 100 100 100 96 84 94 100 100 100 100 100 100 100 100 100 100 100 100 100 100 100 100 100 100 51 99 6 61 89 100 100 100 100 100 41 84 97 100 79 48 34 5 5 5
100 100 100 100 84 99 100 100 100 100 100 100 100 100 100 100 100 100 100 100 100 100 100 100 100 97 17 97 79 50 100 100 100 100 100 59 78 89 100 12 6 6 5 20 5
100 100 100 100 100 100 100 99 100 100 100 100 86 100 100 100 100 100 100 100 100 100 100 100 100 10 6 96 61 100 100 99 100 100 99 69 100 89 82 5 38 5 5 44 5
100 100 100 100 100 100 100 100 100 100 100 100 100 100 99 100 100 100 100 100 100 100 100 24 69 73 100 14 100 100 100 7 100 100 100 88 14 5 35 6 70 76 18 31 5

GFSSW_prec_cloud_285.txt.gz
Cloud_Cover
90 15 5 40 18 100 70 92 47 69 59 100 100 100 27 5 5 5 5 66 28 91 100 97 100 100 100 100 100 100 100 100 100 100 100 100 100 100 5 5 4 0 0 0 0
100 92 6 84 85 90 100 99 6 90 82 93 93 100 99 35 5 5 2 5 6 26 99 99 100 100 100 100 100 100 100 100 100 100 100 100 100 56 5 5 5 0 3 4 0
68 78 75 98 12 81 52 100 98 62 31 27 82 71 89 97 59 5 5 0 5 7 89 89 99 100 100 100 100 100 100 100 100 100 100 92 91 8 38 5 5 4 5 5 0
61 100 98 10 99 91 37 9 94 100 100 52 96 14 44 42 34 44 5 5 5 48 75 99 99 100 100 100 100 100 100 100 100 100 100 99 13 36 14 7 5 5 5 4 0
100 96 98 97 96 74 61 78 99 100 98 92 86 13 5 35 25 19 5 5 5 5 29 97 96 97 100 99 100 100 100 100 100 95 65 35 21 53 5 5 6 12 5 0 0
100 100 90 74 100 96 100 83 74 76 15 69 85 17 6 12 52 79 5 5 5 5 55 51 56 35 89 100 100 100 100 100 91 100 42 36 18 75 5 8 59 54 10 1 0
100 100 100 88 66 100 11 87 96 77 6 16 5 5 5 32 5 34 6 5 5 5 68 67 100 82 82 100 100 100 100 100 100 72 17 5 26 6 21 76 78 67 5 5 0
99 91 100 100 88 84 77 71 94 82 8 21 5 15 73 77 5 5 7 5 5 65 100 100 99 69 50 5 31 100 100 100 75 100 5 5 5 41 90 92 86 66 5 5 0
90 97 83 100 84 100 99 68 29 96 15 5 5 5 34 17 19 5 5 5 23 93 100 100 100 48 5 5 36 100 55 46 91 96 76 8 52 51 86 61 97 59 5 5 0
95 96 100 97 100 100 100 62 68 77 70 5 4 5 5 5 5 5 5 5 12 83 100 100 100 100 90 68 26 89 84 53 18 47 95 88 79 100 100 100 99 30 6 8 0
100 100 91 66 100 100 69 58 33 4 5 5 1 5 5 4 5 17 20 5 44 100 100 100 100 99 100 93 12 5 73 39 17 40 100 72 29 30 100 100 95 51 22 9 0
100 100 100 100 77 100 80 90 6 26 16 33 3 5 5 5 83 19 19 31 100 100 100 92 63 37 45 12 46 74 46 10 5 24 100 22 47 98 100 100 100 5 5 5 5
100 100 100 100 92 80 60 79 47 50 8 9 5 5 4 10 14 25 96 100 100 100 78 65 34 15 26 33 19 26 21 20 5 29 100 98 99 73 100 100 100 5 17 6 1
100 100 100 100 66 100 100 100 99 90 20 13 58 6 5 15 100 99 100 100 100 96 19 6 9 5 48 24 65 8 6 5 5 25 100 95 100 100 100 100 100 47 29 5 0
100 100 100 100 100 100 100 100 100 79 5 15 79 100 100 100 100 100 100 100 100 100 65 14 15 34 5 5 5 11 5 2 3 5 32 75 100 100 100 100 100 72 63 5 5
100 100 100 100 100 100 100 100 100 100 29 92 100 100 100 100 100 100 100 100 100 100 100 74 56 16 13 5 5 5 5 5 5 2 5 5 66 100 100 100 100 87 95 39 5
100 100 100 100 100 100 100 100 100 91 100 100 100 100 100 100 100 100 100 100 100 100 87 100 100 100 67 10 5 5 5 7 96 6 5 5 47 100 100 100 100 100 100 79 5
100 100 100 100 100 100 100 100 100 100 100 100 100 100 100 100 100 100 100 100 97 97 66 100 100 100 100 88 46 26 5 14 100 49 5 5 66 100 100 100 100 100 100 48 7
100 100 100 100 100 100 100 100 100 100 100 100 100 100 100 100 100 100 100 100 100 96 80 100 92 39 77 100 87 28 47 10 100 100 5 5 14 30 75 100 98 76 100 58 12
100 100 100 100 100 100 100 100 100 100 100 100 100 100 100 100 100 100 100 89 83 100 100 94 68 94 70 100 100 100 53 53 100 96 84 5 6 18 17 81 65 80 99 53 51
100 100 100 100 100 100 100 100 100 100 100 100 100 100 100 100 100 100 99 96 100 100 100 100 100 100 100 100 100 100 93 7 90 100 59 45 16 5 5 36 85 45 71 83 90
100 100 100 100 100 100 100 100 100 100 100 100 100 100 100 100 100 100 100 100 100 100 100 100 100 100 100 97 100 100 73 5 86 100 12 5 75 7 5 6 6 5 95 98 64
100 100 100 100 100 100 100 100 100 100 100 100 100 100 100 100 100 100 100 100 100 100 100 100 83 100 100 37 36 65 100 12 100 100 87 99 56 5 26 5 5 22 92 100 19
100 100 100 100 96 96 100 100 100 100 100 100 100 100 100 100 100 100 100 100 100 100 100 83 32 98 97 87 100 90 100 82 100 100 100 100 91 89 16 5 5 5 65 100 14
100 100 100 100 99 86 100 100 100 100 100 100 100 100 100 100 100 100 100 100 100 100 99 5 29 100 100 100 100 56 40 100 46 10 100 100 100 98 98 5 5 5 6 92 79
100 100 100 100 100 100 100 26 87 100 100 100 100 100 100 100 100 100 100 100 100 100 100 55 45 100 100 100 100 100 100 19 5 98 100 100 100 16 11 5 5 5 16 92 66
100 100 100 100 100 100 100 100 100 100 100 98 100 100 100 100 100 100 100 88 99 100 100 98 100 100 100 100 100 89 88 5 5 87 100 100 100 22 39 30 5 5 58 58 59

GFSSW_prec_cloud_288.txt.gz
Cloud_Cover
43 100 100 100 90 9 84 23 73 93 15 22 98 70 95 64 5 12 8 6 5 3 5 5 65 68 99 100 98 100 100 100 100 100 100 100 99 80 99 95 64 5 5 5 5
100 93 100 100 80 54 53 63 57 49 100 93 33 7 35 69 69 22 5 5 5 5 3 5 5 66 53 100 77 100 100 100 100 100 100 100 100 100 89 6 86 9 6 25 9
100 99 100 100 100 98 98 100 82 32 29 53 70 92 22 35 12 7 5 6 7 5 5 5 5 45 61 100 100 100 88 100 100 100 100 100 100 48 22 37 100 6 52 48 5
100 99 100 100 88 96 100 67 99 38 100 19 8 100 94 78 46 43 50 5 5 5 5 5 5 5 55 73 33 87 100 100 100 100 100 100 100 52 16 61 52 6 63 67 5
100 100 100 100 100 90 100 100 58 75 79 100 81 69 97 91 41 8 5 7 5 5 5 0 1 6 40 44 98 100 100 99 82 40 100 100 27 43 48 80 91 100 100 100 7
100 100 100 100 100 100 100 100 100 84 43 84 20 25 97 100 12 82 61 5 17 6 6 5 5 8 5 5 6 5 76 16 99 100 69 36 50 5 5 49 96 100 100 94 5
100 100 100 100 100 100 100 100 100 81 98 100 72 24 99 100 46 43 81 13 5 22 21 5 5 5 5 7 84 26 8 5 7 5 5 7 5 46 6 84 100 100 100 77 5
100 100 100 100 100 100 100 100 100 92 98 98 100 100 99 66 34 46 14 6 6 8 5 5 5 14 14 94 96 99 7 5 5 5 5 5 5 32 69 94 100 100 100 78 5
100 100 100 100 100 100 100 100 100 100 100 100 100 86 87 100 99 20 5 19 5 22 5 4 18 98 100 100 5 6 18 20 20 5 2 4 5 100 100 100 100 100 100 100 5
100 96 100 100 100 100 100 100 100 90 99 79 100 99 90 87 100 7 5 23 5 5 3 5 36 100 99 68 33 5 82 5 36 5 5 4 4 99 100 100 100 100 100 100 5
100 100 100 100 100 100 100 100 87 55 88 84 96 81 100 100 35 20 12 6 5 5 10 30 100 100 100 100 33 13 8 5 5 5 5 5 5 5 96 100 100 100 100 100 10
100 100 100 100 99 100 100 100 75 73 42 91 72 93 100 57 88 56 6 5 5 3 11 16 100 100 96 66 61 50 13 5 5 5 5 4 5 5 10 87 92 100 100 100 15
100 100 100 100 100 98 100 95 88 32 94 94 93 99 100 100 99 64 28 7 5 5 5 100 95 94 14 6 5 44 36 9 5 5 2 4 22 5 5 6 38 100 100 100 44
100 100 100 100 100 100 100 100 92 56 91 59 54 99 92 48 100 96 94 30 5 34 60 92 91 51 5 5 5 5 38 8 5 5 5 5 95 5 5 5 74 100 100 100 92
100 100 100 100 100 100 100 100 73 61 12 39 93 98 48 45 92 100 14 23 10 70 49 26 92 100 100 100 5 23 8 5 5 5 5 5 90 6 5 5 99 100 100 100 100
100 100 100 100 100 100 100 100 100 85 42 56 46 83 87 100 100 77 44 100 100 100 100 100 100 100 100 51 42 84 92 44 38 8 5 5 68 6 5 5 60 100 100 100 100
100 100 100 100 100 100 100 100 100 72 26 94 100 100 100 100 100 100 100 100 100 100 100 100 100 100 100 86 50 71 86 98 92 25 5 5 14 23 5 5 5 92 100 100 100
100 100 100 100 100 100 100 100 100 100 100 100 100 100 100 100 100 100 100 100 100 100 100 100 100 100 100 99 88 97 99 100 100 100 76 6 5 69 5 5 43 29 100 100 100
100 100 100 100 100 100 100 100 100 100 100 100 100 100 100 100 100 100 100 100 100 100 100 100 100 100 100 100 98 100 100 100 100 100 100 82 5 5 10 7 37 6 80 100 100
100 100 100 100 100 100 100 100 100 100 100 100 100 100 100 100 100 100 100 100 100 100 100 100 100 100 100 98 99 100 100 100 61 100 100 100 5 5 44 8 5 5 52 100 100
100 100 100 100 100 100 100 100 100 100 100 100 100 100 100 100 100 100 100 100 100 100 100 100 100 100 100 96 90 74 99 98 94 100 100 94 25 5 39 30 5 52 6 100 100
100 100 100 100 100 100 100 100 100 100 100 100 100 100 100 100 100 100 100 100 100 100 100 100 100 100 100 100 86 65 62 100 94 100 100 6 66 5 70 11 5 92 5 71 100
100 100 100 100 100 100 100 100 100 100 100 100 100 100 100 100 100 100 100 100 100 100 100 100 99 100 97 100 79 96 85 13 23 59 97 46 6 5 7 7 5 68 5 6 62
100 100 100 100 100 100 100 100 100 100 100 100 100 100 100 100 100 100 100 100 100 100 100 100 96 71 100 100 98 54 56 90 88 30 13 76 34 5 39 100 13 5 5 5 18
100 100 100 100 100 100 100 100 100 100 100 100 100 100 100 100 100 100 100 100 100 99 100 90 11 35 78 100 100 94 100 100 100 54 37 68 76 9 7 100 8 5 5 4 5
100 100 100 100 100 100 100 100 100 100 100 100 100 100 100 100 100 100 100 100 100 100 100 72 60 5 26 39 100 100 97 100 100 100 5 5 100 5 4 100 46 45 23 5 5
100 100 100 100 100 100 97 100 100 100 100 100 100 100 100 100 100 100 100 100 100 100 100 100 32 98 100 99 98 100 100 100 100 100 3 5 99 5 5 96 100 83 67 6 6